Manchester, NH

11:11 PM EDT on October 20, 2017 (GMT -0400)
Manchester

Weather History for KMHT - November, 2013

Change the Weather History Date:

Friday, November 22, 2013

  Actual Average Record
Temperature  
Mean Temperature 39 °F 39 °F  
Max Temperature 42 °F 47 °F 68 °F (1999)
Min Temperature 36 °F 32 °F 8 °F (1951)
Degree Days  
Heating Degree Days 26 26  
Month to date heating degree days 489  
Since 1 July heating degree days 1076  
Cooling Degree Days 0 0  
Month to date cooling degree days 0  
Year to date cooling degree days 642  
Moisture  
Dew Point 38 °F    
Average Humidity 92    
Maximum Humidity 100    
Minimum Humidity 65    
Precipitation  
Precipitation 0.15 in 0.12 in 1.24 in (1991)
Month to date precipitation 3.09  
Year to date precipitation 40.32  
Snow  
Snow 0.00 in - - ()
Month to date snowfall  
Since 1 July snowfall  
Snow Depth -    
Sea Level Pressure  
Sea Level Pressure 30.03 in    
Wind  
Wind Speed 2 mph (WSW)    
Max Wind Speed 6 mph    
Max Gust Speed -    
Visibility 2 miles    
Events Fog , Rain    
T = Trace of Precipitation, MM = Missing Value Source: NWS Daily Summary

Daily Weather History Graph

Daily Weather History Graph

Search for Another Location

Airport or City:

Trip Planner

Search our weather history database for the weather conditions in past years. The results will help you decide how hot, cold, wet, or windy it might be!

Date:

Astronomy

Nov. 22, 2013 Rise Set
Actual Time 6:46 AM EST 4:16 PM EST
Civil Twilight 6:15 AM EST 4:47 PM EST
Nautical Twilight 5:41 AM EST 5:22 PM EST
Astronomical Twilight 5:07 AM EST 5:56 PM EST
Moon 8:48 PM EST (11/22) 10:26 AM EST (11/22)
Length of Visible Light 10h 31m
Length of Day
9h 29m
Waning Gibbous, 78% of the Moon is Illuminated
Nov 22
Waning Gibbous
Nov 25
Last Quarter
Dec 2
New
Dec 9
First Quarter
Dec 17
Full

Hourly Weather History & Observations

Time (EST) Temp. Windchill Dew Point Humidity Pressure Visibility Wind Dir Wind Speed Gust Speed Precip Events Conditions
12:53 AM 37.9 °F 35.5 °F 27.0 °F 65% 30.37 in 10.0 mi South 3.5 mph - N/A   Overcast
1:53 AM 37.0 °F - 27.0 °F 67% 30.36 in 10.0 mi Calm Calm - N/A   Partly Cloudy
2:53 AM 37.0 °F - 28.0 °F 70% 30.34 in 10.0 mi Calm Calm - N/A   Mostly Cloudy
3:53 AM 37.0 °F - 28.9 °F 73% 30.33 in 10.0 mi Calm Calm - N/A   Mostly Cloudy
4:53 AM 37.0 °F - 28.9 °F 73% 30.30 in 10.0 mi Calm Calm - N/A   Mostly Cloudy
5:53 AM 37.0 °F - 30.9 °F 79% 30.29 in 10.0 mi Calm Calm - 0.00 in Rain Light Rain
6:53 AM 36.0 °F - 34.0 °F 93% 30.28 in 7.0 mi Calm Calm - 0.03 in Rain Light Rain
7:53 AM 37.0 °F - 34.0 °F 89% 30.26 in 5.0 mi Calm Calm - 0.01 in Rain Light Rain
8:53 AM 37.9 °F 34.4 °F 36.0 °F 93% 30.23 in 5.0 mi North 4.6 mph - 0.02 in Rain Light Rain
9:53 AM 39.9 °F - 37.9 °F 93% 30.20 in 5.0 mi Calm Calm - 0.02 in Rain Light Rain
10:45 AM 39.2 °F - 39.2 °F 100% 30.11 in 3.0 mi Calm Calm - 0.03 in Rain Light Rain
10:53 AM 41.0 °F - 39.0 °F 93% 30.16 in 3.0 mi Calm Calm - 0.03 in Rain Light Rain
10:58 AM 41.0 °F - 39.2 °F 93% 30.11 in 2.0 mi Calm Calm - 0.00 in Rain Light Rain
11:01 AM 41.0 °F - 39.2 °F 93% 30.11 in 2.0 mi Calm Calm - 0.00 in Rain Light Rain
11:04 AM 41.0 °F - 39.2 °F 93% 30.11 in 1.0 mi Calm Calm - 0.00 in Rain Light Rain
11:07 AM 39.2 °F - 39.2 °F 100% 30.10 in 1.0 mi Calm Calm - 0.00 in Rain Light Rain
11:53 AM 41.0 °F 39.0 °F 39.0 °F 93% 30.12 in 1.5 mi North 3.5 mph - 0.03 in Rain Light Rain
12:53 PM 42.1 °F 40.2 °F 39.9 °F 92% 30.08 in 2.0 mi North 3.5 mph - 0.01 in   Overcast
1:41 PM 42.8 °F 40.1 °F 39.2 °F 87% 30.00 in 1.5 mi North 4.6 mph - N/A   Overcast
1:53 PM 42.1 °F 39.2 °F 41.0 °F 96% 30.06 in 1.5 mi NNW 4.6 mph - N/A   Overcast
2:27 PM 41.0 °F 39.0 °F 39.2 °F 93% 30.00 in 0.5 mi WNW 3.5 mph - N/A   Overcast
2:53 PM 42.1 °F 38.4 °F 39.9 °F 92% 30.03 in 0.5 mi NNE 5.8 mph - N/A   Overcast
3:53 PM 41.0 °F - 39.9 °F 96% 30.03 in 0.5 mi Calm Calm - N/A Fog Fog
4:11 PM 41.0 °F - 39.2 °F 93% 29.96 in 0.2 mi Calm Calm - N/A Fog Fog
4:53 PM 41.0 °F 39.0 °F 39.9 °F 96% 30.02 in 0.2 mi NW 3.5 mph - N/A Fog Fog
5:53 PM 41.0 °F 39.0 °F 39.9 °F 96% 29.98 in 0.5 mi North 3.5 mph - N/A Fog Fog
6:07 PM 41.0 °F - 39.2 °F 93% 29.92 in 0.2 mi Calm Calm - N/A Fog Fog
6:12 PM 41.0 °F - 39.2 °F 93% 29.92 in 0.2 mi Calm Calm - N/A Fog Fog
6:53 PM 41.0 °F - 39.9 °F 96% 29.95 in 0.2 mi Calm Calm - N/A Fog Fog
7:24 PM 39.2 °F - 39.2 °F 100% 29.90 in 0.2 mi Calm Calm - N/A Fog Fog
7:40 PM 39.2 °F 35.9 °F 39.2 °F 100% 29.89 in 0.2 mi South 4.6 mph - N/A Fog Fog
7:53 PM 39.9 °F 37.8 °F 39.9 °F 100% 29.94 in 0.2 mi South 3.5 mph - N/A Fog Fog
8:04 PM 39.2 °F 35.9 °F 39.2 °F 100% 29.88 in 0.2 mi SSW 4.6 mph - N/A Fog Fog
8:15 PM 39.2 °F 37.0 °F 39.2 °F 100% 29.87 in 0.2 mi South 3.5 mph - N/A Fog Fog
8:25 PM 41.0 °F - 39.2 °F 93% 29.87 in 0.2 mi Calm Calm - N/A Fog Fog
8:53 PM 41.0 °F 39.0 °F 39.9 °F 96% 29.91 in 0.1 mi SSW 3.5 mph - N/A Fog Fog
9:45 PM 41.0 °F 39.0 °F 39.2 °F 93% 29.85 in 0.2 mi WSW 3.5 mph - N/A Fog Fog
9:53 PM 41.0 °F - 39.9 °F 96% 29.89 in 0.2 mi Calm Calm - N/A Fog Fog
10:08 PM 41.0 °F - 39.2 °F 93% 29.84 in 0.2 mi Calm Calm - N/A Fog Fog
10:32 PM 41.0 °F 39.0 °F 39.2 °F 93% 29.83 in 0.2 mi SSW 3.5 mph - N/A Fog Fog
10:53 PM 41.0 °F 38.0 °F 39.9 °F 96% 29.87 in 0.2 mi South 4.6 mph - N/A Fog Fog
11:20 PM 41.0 °F 39.0 °F 41.0 °F 100% 29.80 in 0.2 mi South 3.5 mph - N/A Fog Fog
11:29 PM 41.0 °F 39.0 °F 41.0 °F 100% 29.80 in 0.5 mi South 3.5 mph - N/A Fog Fog
11:53 PM 41.0 °F - 41.0 °F 100% 29.84 in 1.0 mi Calm Calm - N/A   Overcast
11:57 PM 41.0 °F - 41.0 °F 100% 29.79 in 0.5 mi Calm Calm - N/A   Overcast